Time,TemperatureF,DewpointF,PressureIn,WindDirection,WindDirectionDegrees,WindSpeedMPH,WindSpeedGustMPH,Humidity,HourlyPrecipIn,Conditions,Clouds,dailyrainin,SoftwareType,DateUTC
2013-03-16 17:53:00,32.0,30.0,29.80,NE,43,5.0,7.0,91,0.00,,,0.00,,2013-03-16 21:53:00,
2013-03-16 18:03:00,32.0,30.0,29.80,NE,44,5.0,7.0,92,0.00,,,0.00,,2013-03-16 22:03:00,
2013-03-16 18:13:00,32.0,30.0,29.80,NE,44,5.0,7.0,92,0.00,,,0.00,,2013-03-16 22:13:00,
2013-03-16 18:23:00,32.0,30.0,29.80,NE,41,6.0,10.0,92,0.00,,,0.00,,2013-03-16 22:23:00,
2013-03-16 18:33:00,32.0,30.0,29.80,ENE,58,6.0,12.0,92,0.00,,,0.00,,2013-03-16 22:33:00,
2013-03-16 18:42:00,32.0,30.0,29.80,ENE,58,6.0,12.0,92,0.00,,,0.00,,2013-03-16 22:42:00,
2013-03-16 18:52:00,32.0,30.0,29.80,NE,40,3.0,9.0,91,0.00,,,0.00,,2013-03-16 22:52:00,
2013-03-16 19:02:00,32.0,30.0,29.80,NE,40,3.0,9.0,91,0.00,,,0.00,,2013-03-16 23:02:00,
2013-03-16 19:13:00,32.0,30.0,29.80,NE,40,3.0,9.0,91,0.00,,,0.00,,2013-03-16 23:13:00,
2013-03-16 19:23:00,32.0,29.0,29.80,ENE,74,4.0,9.0,90,0.00,,,0.00,,2013-03-16 23:23:00,
2013-03-16 19:33:00,32.0,29.0,29.80,ENE,74,4.0,9.0,90,0.00,,,0.00,,2013-03-16 23:33:00,
2013-03-16 19:42:00,32.0,29.0,29.80,ENE,74,4.0,9.0,90,0.00,,,0.00,,2013-03-16 23:42:00,
2013-03-16 19:53:00,32.0,30.0,29.83,NNE,31,4.0,10.0,91,0.00,,,0.00,,2013-03-16 23:53:00,
2013-03-16 20:02:00,32.0,30.0,29.83,NNE,31,4.0,10.0,91,0.00,,,0.00,,2013-03-17 00:02:00,
2013-03-16 20:13:00,32.0,30.0,29.83,NNE,31,4.0,10.0,91,0.00,,,0.00,,2013-03-17 00:13:00,
2013-03-16 20:22:00,32.0,29.0,29.83,NE,49,5.0,9.0,90,0.00,,,0.00,,2013-03-17 00:22:00,
2013-03-16 20:33:00,33.0,30.0,29.84,NNE,25,6.0,12.0,90,0.00,,,0.00,,2013-03-17 00:33:00,
2013-03-16 20:43:00,33.0,30.0,29.84,NNE,25,6.0,12.0,90,0.00,,,0.00,,2013-03-17 00:43:00,
2013-03-16 20:52:00,33.0,31.0,29.85,ENE,77,4.0,12.0,91,0.00,,,0.00,,2013-03-17 00:52:00,
2013-03-16 21:02:00,33.0,31.0,29.85,NE,46,3.0,7.0,91,0.00,,,0.00,,2013-03-17 01:02:00,
2013-03-16 21:12:00,33.0,31.0,29.85,NE,46,3.0,7.0,91,0.00,,,0.00,,2013-03-17 01:12:00,
2013-03-16 21:22:00,33.0,30.0,29.86,ENE,60,2.0,9.0,90,0.00,,,0.00,,2013-03-17 01:22:00,
2013-03-16 21:32:00,33.0,30.0,29.86,ENE,60,2.0,9.0,90,0.00,,,0.00,,2013-03-17 01:32:00,
2013-03-16 21:42:00,33.0,30.0,29.86,ENE,60,2.0,9.0,90,0.00,,,0.00,,2013-03-17 01:42:00,
2013-03-16 21:53:00,33.0,30.0,29.87,NE,41,3.0,6.0,89,0.00,,,0.00,,2013-03-17 01:53:00,
2013-03-16 22:03:00,33.0,30.0,29.88,NNE,33,3.0,6.0,88,0.00,,,0.00,,2013-03-17 02:03:00,
2013-03-16 22:13:00,33.0,30.0,29.88,NNE,33,3.0,6.0,88,0.00,,,0.00,,2013-03-17 02:13:00,
2013-03-16 22:22:00,33.0,30.0,29.88,NNE,20,3.0,6.0,88,0.00,,,0.00,,2013-03-17 02:22:00,
2013-03-16 22:33:00,34.0,30.0,29.88,NNE,16,2.0,7.0,86,0.00,,,0.00,,2013-03-17 02:33:00,
2013-03-16 22:43:00,34.0,30.0,29.88,NNE,16,2.0,7.0,86,0.00,,,0.00,,2013-03-17 02:43:00,
2013-03-16 22:53:00,33.0,29.0,29.89,NE,39,4.0,6.0,84,0.00,,,0.00,,2013-03-17 02:53:00,
2013-03-16 23:03:00,34.0,30.0,29.89,North,355,1.0,5.0,84,0.00,,,0.00,,2013-03-17 03:03:00,
2013-03-16 23:12:00,34.0,30.0,29.89,North,355,1.0,5.0,84,0.00,,,0.00,,2013-03-17 03:12:00,
2013-03-16 23:23:00,34.0,29.0,29.90,NNE,15,5.0,9.0,82,0.00,,,0.00,,2013-03-17 03:23:00,
2013-03-16 23:34:00,34.0,29.0,29.89,North,3,5.0,9.0,81,0.00,,,0.00,,2013-03-17 03:34:00,
2013-03-16 23:43:00,34.0,29.0,29.89,North,3,5.0,9.0,81,0.00,,,0.00,,2013-03-17 03:43:00,
2013-03-16 23:53:00,34.0,29.0,29.90,North,355,5.0,7.0,82,0.00,,,0.00,,2013-03-17 03:53:00,